• Join FlightAware (Why Join?)
  • Login
  • US Flag 
04:55AM EST


 

Airport Tracker/Info


-or-


 

Live Flight TrackerFlight Track Log ✈ N1250V ✈ 25-Jun-2013 ✈ KLUK - KACK

Flight Track Log - Related Links

Times and Time Zones

All times are in EDT time to prevent confusion due to time zone crossing. See the N1250V flight status page for this flight to view local times or setup timezone preferences in your user account.

Time Position Orientation Groundspeed Altitude Reporting Facility
EDT Latitude Longitude Course Direction KTS MPH feet Rate Location/Type
09:52AM 39.0833 -84.4167 159° South 139 160 1,100  Level Cincinnati TRACON
09:54AM 39.0167 -84.3833 159° South 221 254 3,400 1,500 Climbing Cincinnati TRACON
09:55AM 38.9667 -84.3500 153° Southeast 230 265 4,800 780 Climbing Cincinnati TRACON
09:56AM 38.9333 -84.2667 117° Southeast 248 285 4,900 300 Climbing Cincinnati TRACON
09:57AM 38.9228 -84.2292 110° East 249 287 5,400 1,620 Climbing Indianapolis Center
09:58AM 38.9033 -84.1447 106° East 247 284 7,700 1,980 Climbing Indianapolis Center
09:59AM 38.8883 -84.0606 103° East 242 278 9,600 1,740 Climbing Indianapolis Center
10:00AM 38.8714 -83.9758 104° East 243 280 11,400 1,800 Climbing Indianapolis Center
10:01AM 38.8528 -83.8722 103° East 254 292 13,400 1,740 Climbing Indianapolis Center
10:02AM 38.8289 -83.7886 110° East 252 290 15,000 1,500 Climbing Indianapolis Center
10:03AM 38.8019 -83.7028 112° Southeast 257 296 16,600 1,500 Climbing Indianapolis Center
10:04AM 38.7833 -83.6133 105° East 258 297 18,200 1,140 Climbing Indianapolis Center
10:05AM 38.7639 -83.5219 105° East 264 304 19,000 540 Climbing Indianapolis Center
10:06AM 38.7400 -83.4136 106° East 309 356 19,400 600 Climbing Indianapolis Center
10:07AM 38.7150 -83.3006 106° East 325 374 20,300 900 Climbing Indianapolis Center
10:08AM 38.6864 -83.1692 106° East 327 376 21,300 840 Climbing Indianapolis Center
10:09AM 38.6636 -83.0675 106° East 328 377 22,100 840 Climbing Indianapolis Center
10:10AM 38.6494 -82.9544 99° East 325 374 23,100 960 Climbing Indianapolis Center
10:11AM 38.6892 -82.8256 68° East 327 376 24,100 960 Climbing Indianapolis Center
10:12AM 38.7222 -82.7192 68° East 322 371 25,100 900 Climbing Indianapolis Center
10:13AM 38.7553 -82.6125 68° East 322 371 26,000 900 Climbing Indianapolis Center
10:14AM 38.7878 -82.5072 68° East 317 365 27,000 900 Climbing Indianapolis Center
10:15AM 38.8192 -82.4036 69° East 314 361 27,900 840 Climbing Indianapolis Center
10:16AM 38.8503 -82.3003 69° East 311 358 28,800 720 Climbing Indianapolis Center
10:17AM 38.8825 -82.1953 68° East 313 360 29,400 600 Climbing Indianapolis Center
10:18AM 38.9203 -82.0681 69° East 318 366 30,100 600 Climbing Indianapolis Center
10:19AM 38.9528 -81.9606 69° East 321 369 30,700 600 Climbing Indianapolis Center
10:20AM 38.9850 -81.8522 69° East 323 372 31,400 600 Climbing Indianapolis Center
10:21AM 39.0172 -81.7456 69° East 320 368 32,000 540 Climbing Indianapolis Center
10:22AM 39.0486 -81.6389 69° East 317 365 32,600 480 Climbing Indianapolis Center
10:23AM 39.0797 -81.5325 69° East 317 365 33,000 180 Climbing Indianapolis Center
10:24AM 39.1131 -81.4222 69° East 323 372 33,000  Level Indianapolis Center
10:25AM 39.1456 -81.3069 70° East 337 388 33,000  Level Indianapolis Center
10:27AM 39.1867 -81.1658 69° East 348 400 33,000  Level Indianapolis Center
10:28AM 39.2211 -81.0472 69° East 351 404 33,000  Level Indianapolis Center
10:29AM 39.2561 -80.9278 69° East 354 407 33,000  Level Indianapolis Center
10:30AM 39.2894 -80.8072 70° East 355 409 33,000  Level Indianapolis Center
10:31AM 39.3242 -80.6864 70° East 356 410 33,000  Level Indianapolis Center
10:32AM 39.3586 -80.5658 70° East 356 410 33,000  Level Indianapolis Center
10:33AM 39.3925 -80.4442 70° East 359 413 33,000  Level Indianapolis Center
10:34AM 39.4339 -80.2978 70° East 360 414 33,000  Level Indianapolis Center
10:35AM 39.4678 -80.1761 70° East 359 413 33,000  Level Indianapolis Center
10:36AM 39.5019 -80.0525 70° East 362 417 33,000  Level Indianapolis Center
10:37AM 39.5381 -79.9289 69° East 348 400 33,000  Level Cleveland Center
10:38AM 39.5683 -79.8075 72° East 348 400 33,000  Level Cleveland Center
10:39AM 39.5883 -79.6808 78° East 348 400 33,000  Level Cleveland Center
10:40AM 39.6103 -79.5539 77° East 354 407 33,000  Level Cleveland Center
10:41AM 39.6339 -79.4267 76° East 354 407 33,000  Level Cleveland Center
10:42AM 39.6597 -79.3022 75° East 354 407 33,000  Level Cleveland Center
10:43AM 39.6875 -79.1775 74° East 354 407 33,000  Level Cleveland Center
10:45AM 39.7464 -78.9064 74° East 364 419 33,000  Level Cleveland Center
10:46AM 39.7714 -78.7789 76° East 364 419 33,000  Level Cleveland Center
10:47AM 39.7944 -78.6539 76° East 358 412 33,000  Level Cleveland Center
10:48AM 39.8192 -78.5261 76° East 358 412 33,000  Level Cleveland Center
10:49AM 39.8461 -78.3983 75° East 358 412 33,000  Level Cleveland Center
10:51AM 39.8967 -78.1611 74° East 359 413 33,000  Level New York Center
10:52AM 39.9231 -78.0367 75° East 359 413 33,000  Level New York Center
10:53AM 39.9456 -77.9089 77° East 359 413 33,000  Level New York Center
10:54AM 39.9719 -77.7817 75° East 354 407 33,000  Level New York Center
10:55AM 39.9981 -77.6542 75° East 354 407 33,000  Level New York Center
10:56AM 40.0219 -77.5317 76° East 354 407 33,000  Level New York Center
10:57AM 40.0458 -77.4039 76° East 354 407 33,000  Level New York Center
10:58AM 40.0717 -77.2761 75° East 354 407 33,000  Level New York Center
10:59AM 40.1056 -77.1544 70° East 354 407 33,000  Level New York Center
11:00AM 40.1383 -77.0486 68° East 354 407 33,000  Level New York Center
11:01AM 40.1658 -76.9233 74° East 354 407 33,000  Level New York Center
11:02AM 40.1886 -76.8006 76° East 354 407 33,000  Level New York Center
11:03AM 40.2119 -76.6692 77° East 354 407 33,000  Level New York Center
11:04AM 40.2347 -76.5461 76° East 354 407 33,000  Level New York Center
11:05AM 40.2578 -76.4147 77° East 354 407 33,000  Level New York Center
11:06AM 40.2803 -76.2942 76° East 354 407 33,000  Level New York Center
11:07AM 40.3056 -76.1517 77° East 354 407 33,000  Level New York Center
11:08AM 40.3281 -76.0200 77° East 354 407 33,000  Level New York Center
11:09AM 40.3525 -75.8939 76° East 354 407 33,000  Level New York Center
11:10AM 40.3725 -75.7675 78° East 354 407 33,000  Level New York Center
11:11AM 40.3919 -75.6489 78° East 354 407 33,000  Level New York Center
11:12AM 40.4139 -75.5222 77° East 354 407 33,000  Level New York Center
11:13AM 40.4361 -75.3792 78° East 354 407 33,000  Level New York Center
11:14AM 40.4597 -75.2528 76° East 359 413 33,000  Level New York Center
11:15AM 40.4789 -75.1367 78° East 364 419 33,000  Level New York Center
11:16AM 40.5022 -75.0042 77° East 364 419 33,000  Level New York Center
11:17AM 40.5236 -74.8772 77° East 364 419 33,000  Level New York Center
11:18AM 40.5469 -74.7367 78° East 364 419 33,000  Level New York Center
11:19AM 40.5656 -74.6175 78° East 364 419 33,000  Level New York Center
11:20AM 40.5889 -74.4767 78° East 364 419 33,000  Level New York Center
11:21AM 40.6069 -74.3603 78° East 371 427 33,000  Level New York Center
11:23AM 40.5900 -74.0769 94° East 357 411 33,000  Level Boston Center
11:24AM 40.5794 -73.9456 96° East 357 411 33,000  Level Boston Center
11:25AM 40.5686 -73.8142 96° East 363 418 33,000  Level Boston Center
11:26AM 40.5556 -73.6803 97° East 368 423 33,000  Level Boston Center
11:27AM 40.5589 -73.5492 88° East 368 423 33,000  Level Boston Center
11:28AM 40.5956 -73.4322 68° East 356 410 33,000  Level Boston Center
11:29AM 40.6214 -73.3042 75° East 351 404 33,000  Level Boston Center
11:30AM 40.6475 -73.1786 75° East 351 404 33,000 -60 Level Boston Center
11:31AM 40.6711 -73.0558 76° East 351 404 32,900 -660 Descending Boston Center
11:32AM 40.6989 -72.9272 74° East 351 404 31,700 -1,380 Descending Boston Center
11:33AM 40.7244 -72.7850 77° East 368 423 30,200 -1,500 Descending Boston Center
11:34AM 40.7600 -72.6428 72° East 388 447 28,800 -1,500 Descending Boston Center
11:35AM 40.7872 -72.5031 76° East 394 453 27,300 -1,500 Descending Boston Center
11:36AM 40.8167 -72.3633 74° East 394 453 25,800 -1,500 Descending Boston Center
11:37AM 40.8414 -72.2317 76° East 378 435 24,400 -1,500 Descending Boston Center
11:38AM 40.8681 -72.1025 75° East 373 429 22,900 -1,320 Descending Boston Center
11:39AM 40.8928 -71.9789 75° East 360 414 21,800 -1,200 Descending Boston Center
11:40AM 40.9150 -71.8606 76° East 344 396 20,600 -1,020 Descending Boston Center
11:41AM 40.9017 -71.7233 97° East 344 396 19,800 -1,080 Descending Boston Center
11:42AM 40.8925 -71.6000 96° East 351 404 18,500 -1,380 Descending Boston Center
11:43AM 40.8978 -71.4708 87° East 357 411 17,100 -1,380 Descending Boston Center
11:44AM 40.9406 -71.3547 64° Northeast 344 396 15,800 -1,320 Descending Boston Center
11:45AM 40.9789 -71.2414 66° East 338 389 14,500 -1,260 Descending Boston Center
11:46AM 41.0175 -71.1472 61° Northeast 330 380 13,300 -1,440 Descending Boston Center
11:47AM 41.0578 -71.0197 67° East 315 362 11,700 -1,200 Descending Boston Center
11:48AM 41.0833 -70.9200 71° East 301 346 10,900 -900 Descending Boston Center
11:49AM 41.0819 -70.8100 91° East 294 338 9,900 -1,140 Descending Boston Center
11:50AM 41.0822 -70.6969 90° East 294 338 8,700 -1,140 Descending Boston Center
11:51AM 41.0867 -70.5811 87° East 299 344 7,700 -1,080 Descending Boston Center
11:52AM 41.0933 -70.4764 85° East 299 344 6,600 -1,260 Descending Boston Center
11:53AM 41.1125 -70.3875 74° East 286 329 5,200 -1,500 Descending Boston Center
11:54AM 41.1294 -70.2878 77° East 279 321 3,700 -1,140 Descending Boston Center
11:55AM 41.1442 -70.1964 78° East 268 308 3,000 -600 Descending Boston Center
11:56AM 41.1783 -70.1317 55° Northeast 244 281 2,600 -600 Descending Boston Center
11:57AM 41.2150 -70.0808 46° Northeast 213 245 1,800 -600 Descending Boston Center
11:58AM 41.2472 -70.0353 47° Northeast 184 212 1,500 -360 Descending Boston Center
11:59AM 41.2758 -70.0039 40° Northeast 154 177 1,100 -480 Descending Boston Center
12:00PM 41.2744 -70.0400 267° West 41 47 500 -480 Descending Boston Center
12:01PM 41.2728 -70.0567 262° West 35 40 200 -300 Descending Boston Center
12:03PM 41.2500 -70.0500 317° Northwest  Level FlightAware Approximate